Wind_Speed
38 39 39 39 39 38 38 38 38 38 38 38 37 38 38 37 37 37 36 36 36 36 37 37 37 37 36 36 36 37 37 37 37 37 38 38 38 37
37 37 37 37 37 37 36 37 37 37 37 36 37 37 38 37 37 37 36 35 35 36 36 37 36 35 34 34 35 35 35 36 36 36 36 37 37 36
36 36 36 35 35 35 36 36 36 36 35 35 35 36 37 37 36 35 34 35 35 35 35 34 33 33 34 34 34 34 35 35 35 35 35 36 36 36
34 35 36 36 35 35 35 35 35 34 34 34 34 35 36 36 36 35 35 35 35 35 34 34 33 33 34 33 33 33 34 34 34 35 36 36 36 36
34 35 36 36 35 35 35 35 34 33 34 34 34 34 35 36 36 35 35 34 34 33 33 33 32 32 32 32 33 34 34 34 34 35 35 35 34 34
35 34 35 34 35 35 35 34 33 33 33 33 33 34 34 35 35 35 34 34 34 34 33 32 31 31 31 32 33 34 34 33 34 34 33 33 33 33
35 34 34 34 34 34 33 33 32 32 32 33 33 34 34 34 34 34 34 34 34 34 32 32 31 31 31 31 32 32 33 33 33 32 32 32 32 31
33 33 33 33 32 32 32 32 32 31 31 31 32 33 33 33 33 33 33 33 33 32 31 31 30 31 32 32 31 31 32 32 31 31 30 30 30 29
32 32 32 32 32 32 32 31 31 30 30 30 30 31 32 32 33 33 32 32 31 31 31 30 30 30 30 30 30 30 31 31 30 29 29 29 28 26
29 30 31 32 32 32 31 30 30 30 30 30 30 31 31 31 32 32 31 31 31 30 30 29 29 29 29 30 30 29 29 29 28 28 27 26 25 24
28 29 30 30 31 30 30 30 31 31 31 31 32 31 31 31 31 30 30 30 29 28 29 29 28 28 28 28 28 28 27 27 26 26 25 24 23 22
28 28 28 29 29 29 29 30 31 30 30 30 30 30 30 30 30 30 29 29 28 28 27 27 27 27 27 27 27 26 25 25 25 24 23 22 21 21
27 28 28 28 28 28 29 30 30 30 30 30 30 30 30 30 30 29 29 28 27 26 25 25 25 25 25 25 25 25 24 24 23 22 22 21 20 20
27 27 27 27 27 28 29 29 29 30 30 30 30 29 29 29 28 28 27 26 26 25 24 24 23 24 24 24 23 23 22 22 21 21 20 19 18 18
25 25 25 26 27 27 28 28 29 30 30 29 29 28 27 27 26 26 25 25 25 24 23 23 22 23 23 23 22 21 20 19 19 18 17 17 17 17
24 25 26 25 26 26 27 28 28 29 29 29 29 28 27 26 25 24 24 24 23 22 21 21 21 21 22 21 20 19 18 17 17 16 16 16 15 15
23 24 25 25 25 25 25 26 27 27 27 28 28 27 26 25 24 23 22 21 21 21 20 20 20 19 19 19 17 15 15 15 15 15 15 14 14 13
23 23 23 24 24 24 24 24 25 25 25 26 26 25 24 23 23 22 21 20 19 19 19 20 19 17 17 16 15 14 14 14 15 15 14 13 13 13
22 22 22 23 23 24 24 24 23 23 23 23 24 24 24 23 22 21 20 19 19 19 19 19 18 17 17 15 14 13 13 14 14 14 14 13 12 12
22 22 22 22 23 23 23 23 22 22 22 22 23 23 22 22 21 20 19 18 17 18 18 18 17 17 17 15 14 14 14 14 14 13 13 13 12 12
21 21 22 21 21 21 21 21 21 21 21 21 21 21 20 20 20 20 19 17 16 16 17 17 17 17 16 15 15 15 14 14 13 13 13 12 12 12
20 20 20 20 20 19 19 18 18 18 19 19 19 19 19 19 19 19 19 17 16 16 16 17 17 17 16 15 15 14 14 13 13 13 12 12 12 12
18 19 19 18 18 17 17 17 16 16 17 17 17 17 18 18 18 18 18 17 16 16 16 16 17 17 16 15 15 14 14 13 13 12 12 12 12 11
Wind_Direction
263 264 267 269 271 273 272 270 268 267 266 264 264 264 265 267 268 269 271 272 273 275 277 280 278 276 275 275 276 277 277 277 277 278 278 279 278 277
264 266 267 268 270 272 272 270 268 267 264 263 263 265 266 267 268 270 270 273 275 277 279 280 278 274 273 273 276 279 277 277 278 279 280 281 279 277
265 266 266 271 272 272 272 271 269 266 264 263 264 265 267 266 268 269 272 273 276 277 278 279 277 274 275 273 277 278 278 278 278 280 281 281 280 278
265 266 267 271 273 273 272 272 269 265 263 262 263 265 265 266 268 269 271 274 275 276 277 277 276 275 275 276 278 278 278 279 280 281 281 281 280 276
265 268 270 271 272 273 273 271 269 265 263 262 262 263 265 267 268 269 272 274 274 275 276 277 277 276 276 278 278 277 279 281 282 283 282 280 278 275
267 269 270 271 272 272 271 270 269 266 264 263 262 264 266 267 268 270 272 273 273 273 275 277 276 276 277 279 277 277 279 282 283 283 281 280 278 276
268 269 270 271 272 271 270 268 267 266 264 263 264 265 266 267 269 271 272 273 272 275 276 276 276 276 277 279 279 280 280 282 282 282 282 280 278 275
268 269 269 269 269 270 268 266 265 264 265 265 265 266 267 268 270 271 273 273 272 273 272 273 276 277 279 280 279 279 280 281 281 282 282 281 279 275
269 269 268 268 268 268 266 265 263 264 265 266 266 267 268 268 269 270 273 274 273 272 272 272 274 277 279 280 280 280 281 281 282 282 282 280 276 274
268 269 269 269 267 266 263 262 263 264 264 265 267 268 268 268 270 271 272 274 273 273 273 273 275 277 279 279 280 280 281 280 281 283 281 277 274 275
269 270 269 268 267 264 262 263 264 264 263 265 267 267 267 268 270 272 273 274 274 274 273 274 275 276 276 279 280 281 282 282 281 281 280 277 276 278
269 269 270 268 264 262 261 262 262 261 262 264 266 267 267 269 270 271 272 274 274 274 272 272 273 275 277 278 280 281 282 282 283 280 278 278 280 280
268 269 269 266 263 262 262 262 260 259 261 264 265 266 268 270 271 272 273 274 273 274 274 273 273 276 280 281 280 281 284 284 282 280 278 280 280 280
269 269 266 262 262 262 262 261 259 258 259 261 262 264 267 269 269 269 270 270 271 271 271 270 271 275 279 282 283 282 283 282 279 278 278 279 277 279
269 269 266 261 262 265 263 260 258 258 259 261 263 265 266 267 268 268 267 268 270 270 270 271 273 275 277 281 283 282 279 277 276 277 277 275 274 278
270 268 266 263 262 264 263 260 260 260 260 261 263 264 265 265 266 266 266 268 268 267 268 271 274 276 278 280 280 278 273 270 270 273 275 273 274 278
271 266 263 264 265 264 262 261 261 260 260 260 260 260 261 262 263 263 264 264 265 265 266 270 274 277 278 278 276 271 267 265 267 269 269 268 269 273
270 267 265 266 266 264 263 262 261 259 258 258 257 257 258 258 260 261 260 262 264 265 267 270 272 273 273 271 271 266 263 263 264 265 266 266 268 273
270 268 268 267 267 265 264 262 260 258 259 259 258 258 257 255 255 255 256 260 263 264 266 270 271 270 270 268 265 262 261 261 262 263 264 265 266 270
270 270 270 269 269 266 263 261 259 258 258 258 257 257 256 254 251 252 254 260 262 263 265 268 270 270 267 264 261 259 260 260 259 260 261 262 264 268
271 271 269 269 269 266 262 259 257 256 256 256 256 255 254 251 250 251 253 260 261 261 264 267 270 269 265 263 261 259 257 256 258 259 259 261 263 264
271 269 267 266 267 266 261 257 254 254 255 255 255 254 253 250 249 249 252 257 259 261 263 265 265 264 263 260 258 258 257 256 259 260 259 260 261 262
272 269 267 264 264 263 258 254 251 252 254 254 255 256 253 251 249 249 251 253 257 258 261 264 265 266 265 259 255 255 254 253 253 254 258 259 262 264
Height
5627 5627 5628 5627 5626 5625 5624 5624 5624 5625 5626 5626 5626 5627 5627 5627 5627 5627 5626 5626 5625 5624 5623 5621 5620 5619 5619 5618 5617 5616 5615 5614 5613 5612 5611 5610 5609 5609
5617 5617 5617 5617 5616 5615 5614 5613 5613 5614 5615 5617 5617 5617 5617 5617 5617 5617 5616 5616 5615 5614 5613 5612 5610 5609 5609 5608 5608 5606 5605 5604 5603 5602 5600 5599 5598 5598
5607 5607 5607 5606 5606 5604 5604 5603 5603 5603 5605 5607 5607 5607 5607 5608 5608 5607 5607 5607 5606 5605 5604 5602 5601 5600 5599 5599 5598 5597 5595 5594 5593 5592 5590 5589 5587 5587
5597 5597 5597 5596 5595 5594 5593 5593 5593 5593 5595 5597 5597 5598 5598 5598 5598 5598 5598 5597 5596 5595 5594 5593 5592 5591 5590 5590 5589 5587 5586 5585 5584 5582 5580 5579 5577 5576
5587 5587 5587 5586 5586 5584 5584 5583 5583 5584 5585 5586 5587 5588 5588 5588 5588 5588 5588 5587 5587 5586 5585 5584 5583 5582 5582 5581 5580 5578 5577 5576 5574 5572 5570 5569 5567 5566
5578 5578 5578 5577 5576 5575 5575 5574 5574 5574 5575 5576 5577 5578 5578 5578 5578 5579 5578 5578 5577 5576 5575 5575 5574 5574 5573 5572 5571 5569 5568 5566 5565 5563 5561 5559 5557 5556
5568 5568 5568 5567 5567 5566 5565 5565 5565 5565 5566 5567 5568 5568 5569 5569 5569 5569 5569 5568 5568 5567 5566 5566 5566 5565 5564 5563 5561 5560 5559 5557 5555 5553 5551 5549 5548 5547
5558 5558 5558 5557 5557 5557 5556 5556 5556 5557 5558 5558 5559 5560 5560 5560 5560 5560 5560 5559 5560 5560 5558 5558 5557 5556 5555 5554 5552 5551 5549 5548 5546 5544 5542 5540 5539 5538
5548 5548 5548 5548 5547 5547 5547 5547 5548 5548 5549 5550 5551 5551 5551 5551 5551 5551 5550 5550 5550 5550 5550 5549 5548 5547 5546 5545 5543 5542 5541 5539 5537 5535 5533 5532 5531 5530
5539 5539 5538 5538 5538 5538 5538 5538 5539 5540 5541 5541 5543 5542 5542 5542 5542 5542 5541 5541 5541 5541 5541 5541 5540 5539 5538 5537 5535 5534 5532 5530 5528 5526 5525 5524 5523 5523
5530 5530 5529 5529 5529 5528 5529 5530 5531 5532 5532 5533 5533 5533 5534 5534 5534 5533 5533 5533 5533 5533 5532 5533 5532 5531 5530 5528 5527 5525 5523 5522 5520 5519 5518 5517 5516 5516
5522 5521 5520 5520 5519 5519 5519 5521 5522 5523 5523 5524 5525 5525 5525 5525 5525 5525 5525 5525 5526 5526 5525 5525 5524 5523 5522 5521 5519 5518 5516 5514 5513 5512 5511 5511 5510 5509
5513 5512 5512 5511 5511 5511 5511 5512 5513 5514 5515 5516 5516 5517 5517 5517 5517 5517 5517 5517 5518 5518 5517 5517 5516 5515 5514 5514 5512 5511 5509 5507 5506 5506 5505 5505 5504 5503
5504 5504 5503 5503 5502 5502 5502 5503 5504 5505 5506 5507 5508 5509 5509 5509 5509 5509 5509 5509 5510 5510 5509 5509 5509 5508 5507 5506 5505 5504 5503 5501 5501 5501 5500 5499 5499 5498
5495 5495 5495 5494 5494 5494 5494 5495 5496 5497 5498 5499 5500 5501 5501 5501 5501 5502 5502 5502 5502 5502 5502 5502 5502 5501 5500 5499 5498 5497 5497 5496 5496 5496 5495 5495 5494 5493
5487 5487 5486 5486 5486 5486 5486 5487 5488 5489 5490 5491 5492 5493 5493 5494 5494 5495 5495 5496 5496 5496 5496 5496 5495 5495 5494 5493 5492 5491 5491 5491 5492 5491 5491 5490 5489 5489
5479 5479 5478 5478 5478 5479 5479 5479 5480 5481 5482 5483 5485 5485 5486 5487 5488 5488 5489 5489 5490 5490 5490 5490 5490 5489 5488 5487 5487 5487 5487 5487 5487 5487 5487 5486 5485 5485
5472 5471 5471 5471 5471 5471 5471 5472 5473 5474 5475 5476 5477 5479 5480 5481 5482 5482 5483 5483 5484 5485 5485 5485 5485 5485 5484 5483 5483 5483 5484 5484 5484 5483 5483 5483 5482 5481
5465 5464 5464 5464 5464 5464 5464 5465 5466 5467 5468 5469 5471 5472 5473 5474 5476 5477 5478 5478 5479 5479 5480 5480 5480 5480 5480 5480 5480 5480 5480 5480 5480 5480 5479 5479 5479 5478
5458 5458 5458 5457 5457 5457 5457 5458 5459 5460 5462 5463 5465 5466 5467 5469 5470 5471 5473 5473 5474 5474 5475 5475 5475 5475 5475 5475 5475 5476 5476 5476 5476 5477 5476 5476 5476 5475
5452 5452 5451 5451 5451 5451 5451 5452 5453 5454 5456 5457 5459 5460 5462 5463 5465 5466 5468 5469 5469 5470 5470 5470 5470 5470 5470 5471 5471 5472 5472 5473 5473 5473 5473 5473 5473 5472
5446 5446 5446 5446 5446 5446 5446 5447 5448 5449 5451 5452 5454 5455 5457 5458 5460 5461 5463 5464 5465 5465 5465 5466 5466 5466 5467 5467 5468 5468 5468 5469 5469 5469 5469 5470 5469 5469
5440 5440 5440 5440 5441 5441 5442 5443 5444 5445 5446 5448 5449 5450 5452 5453 5455 5456 5458 5459 5460 5460 5461 5462 5462 5462 5462 5463 5463 5464 5464 5465 5465 5466 5466 5465 5465 5465